Milwaukee, WI

2:54 AM CST on January 17, 2017 (GMT -0600)
Timmerman

Weather History for KMWC - September, 2013

Change the Weather History Date:

Friday, September 27, 2013

  Actual Average Record
Temperature  
Mean Temperature 58 °F -  
Max Temperature 75 °F 69 °F 85 °F (1963)
Min Temperature 42 °F 49 °F 33 °F (1991)
Degree Days  
Heating Degree Days 6    
Growing Degree Days 8 (Base 50)    
Moisture  
Dew Point 47 °F    
Average Humidity 79    
Maximum Humidity 94    
Minimum Humidity 38    
Precipitation  
Precipitation 0.00 in - - ()
Sea Level Pressure  
Sea Level Pressure 30.13 in    
Wind  
Wind Speed 1 mph (SE)    
Max Wind Speed 10 mph    
Max Gust Speed -    
Visibility 8 miles    
Events Fog    
Averages and records for this station are not official NWS values.
T = Trace of Precipitation, MM = Missing Value Source: NWS Daily Summary

Daily Weather History Graph

Daily Weather History Graph

Search for Another Location

Airport or City:

Trip Planner

Search our weather history database for the weather conditions in past years. The results will help you decide how hot, cold, wet, or windy it might be!

Date:

Astronomy

Sep. 27, 2013 Rise Set
Actual Time 6:45 AM CDT 6:39 PM CDT
Civil Twilight 6:16 AM CDT 7:08 PM CDT
Nautical Twilight 5:43 AM CDT 7:41 PM CDT
Astronomical Twilight 5:10 AM CDT 8:14 PM CDT
Moon No Moon Rise 2:26 PM CDT (9/27)
Length of Visible Light 12h 51m
Length of Day
11h 54m
Last Quarter, 45% of the Moon is Illuminated
Sep 27
Last Quarter
Oct 4
New
Oct 11
First Quarter
Oct 18
Full
Oct 26
Last Quarter

Hourly Weather History & Observations

Time (CDT) Temp. Dew Point Humidity Pressure Visibility Wind Dir Wind Speed Gust Speed Precip Events Conditions
12:15 AM 50.0 °F 46.4 °F 87% 30.12 in 7.0 mi Calm Calm - N/A   Clear
12:35 AM 48.2 °F 46.4 °F 93% 30.12 in 0.5 mi Calm Calm - N/A Fog Fog
12:55 AM 50.0 °F 46.4 °F 87% 30.12 in 3.0 mi Calm Calm - N/A   Clear
1:15 AM 46.4 °F 44.6 °F 93% 30.12 in 7.0 mi Calm Calm - N/A   Clear
1:35 AM 48.2 °F 44.6 °F 87% 30.13 in 7.0 mi Calm Calm - N/A   Clear
1:55 AM 46.4 °F 44.6 °F 93% 30.13 in 10.0 mi Calm Calm - N/A   Clear
2:15 AM 46.4 °F 42.8 °F 87% 30.13 in 10.0 mi Calm Calm - N/A   Clear
2:35 AM 46.4 °F 42.8 °F 87% 30.12 in 10.0 mi Calm Calm - N/A   Clear
2:55 AM 46.4 °F 44.6 °F 93% 30.12 in 5.0 mi Calm Calm - N/A   Clear
3:15 AM 46.4 °F 44.6 °F 93% 30.13 in 10.0 mi Calm Calm - N/A   Clear
3:35 AM 46.4 °F 44.6 °F 93% 30.13 in 4.0 mi Calm Calm - N/A   Clear
3:55 AM 46.4 °F 42.8 °F 87% 30.14 in 2.5 mi Calm Calm - N/A   Clear
4:15 AM 46.4 °F 44.6 °F 93% 30.14 in 7.0 mi Calm Calm - N/A   Clear
4:35 AM 46.4 °F 42.8 °F 87% 30.14 in 10.0 mi Calm Calm - N/A   Clear
4:55 AM 44.6 °F 42.8 °F 93% 30.14 in 7.0 mi Calm Calm - N/A   Clear
5:15 AM 44.6 °F 42.8 °F 93% 30.14 in 5.0 mi Calm Calm - N/A   Clear
5:35 AM 44.6 °F 42.8 °F 93% 30.15 in 7.0 mi Calm Calm - N/A   Clear
5:55 AM 46.4 °F 42.8 °F 87% 30.15 in 10.0 mi Calm Calm - N/A   Clear
6:15 AM 44.6 °F 42.8 °F 93% 30.16 in 7.0 mi Calm Calm - N/A   Clear
6:35 AM 42.8 °F 41.0 °F 93% 30.17 in 1.8 mi Calm Calm - N/A   Mist
6:45 AM 44.6 °F 42.8 °F 93% 30.17 in 5.0 mi Calm Calm - N/A   Clear
6:55 AM 44.6 °F 42.8 °F 93% 30.18 in 5.0 mi Calm Calm - N/A   Clear
7:45 AM 48.2 °F 44.6 °F 87% 30.18 in 6.0 mi Calm Calm - N/A   Clear
8:45 AM 60.8 °F 53.6 °F 77% 30.18 in 10.0 mi Calm Calm - N/A   Clear
9:45 AM 66.2 °F 48.2 °F 52% 30.18 in 10.0 mi South 10.4 mph - N/A   Clear
10:45 AM 71.6 °F 48.2 °F 43% 30.18 in 10.0 mi SSE 6.9 mph - N/A   Clear
11:45 AM 73.4 °F 48.2 °F 41% 30.17 in 10.0 mi SSE 8.1 mph - N/A   Clear
12:45 PM 75.2 °F 55.4 °F 50% 30.15 in 10.0 mi ESE 6.9 mph - N/A   Clear
1:45 PM 73.4 °F 51.8 °F 47% 30.14 in 10.0 mi East 9.2 mph - N/A   Clear
2:45 PM 75.2 °F 48.2 °F 38% 30.12 in 10.0 mi ESE 9.2 mph - N/A   Clear
3:45 PM 73.4 °F 51.8 °F 47% 30.11 in 10.0 mi ESE 10.4 mph - N/A   Clear
4:45 PM 71.6 °F 51.8 °F 50% 30.10 in 10.0 mi ESE 8.1 mph - N/A   Clear
5:45 PM 71.6 °F 44.6 °F 38% 30.10 in 10.0 mi SE 6.9 mph - N/A   Clear
6:45 PM 66.2 °F 46.4 °F 49% 30.09 in 10.0 mi SE 5.8 mph - N/A   Clear
7:45 PM 62.6 °F 51.8 °F 68% 30.09 in 10.0 mi Calm Calm - N/A   Clear
8:45 PM 59.0 °F 51.8 °F 77% 30.10 in 10.0 mi Calm Calm - N/A   Clear
9:15 PM 55.4 °F 50.0 °F 82% 30.10 in 10.0 mi Calm Calm - N/A   Clear
9:35 PM 55.4 °F 51.8 °F 88% 30.11 in 10.0 mi Calm Calm - N/A   Clear
9:55 PM 53.6 °F 51.8 °F 94% 30.10 in 10.0 mi Calm Calm - N/A   Clear
10:15 PM 53.6 °F 50.0 °F 88% 30.11 in 10.0 mi Calm Calm - N/A   Clear
10:35 PM 53.6 °F 50.0 °F 88% 30.10 in 10.0 mi Calm Calm - N/A   Clear
10:55 PM 53.6 °F 50.0 °F 88% 30.10 in 10.0 mi Calm Calm - N/A   Clear
11:15 PM 51.8 °F 50.0 °F 94% 30.10 in 5.0 mi Calm Calm - N/A   Clear
11:35 PM 51.8 °F 50.0 °F 94% 30.10 in 10.0 mi Calm Calm - N/A   Clear
11:55 PM 51.8 °F 48.2 °F 88% 30.09 in 10.0 mi Calm Calm - N/A   Clear